www.pogodaiklimat.ru

Погода и климат >> Архив погоды >> Парагвай >> Asuncion


ПОГОДА в Asuncion

  • Прогноз погоды в Asuncion
  • Монитор погоды в Asuncion
  • Климат города

АРХИВ ПОГОДЫ в Asuncion

Время (UTC), дата Ветер
(напр.,м/с)
 
Видим.   Явления Облачность Т
(С)
Тd
(С)
f
(%)
Тe
(С)
Тes
(С)
Комфортность P
(гПа)
Po
(гПа)
Тmin
(С)
Tmax
(С)
R
(мм)
R24
(мм)
S
(см)
18 11.12 С 7 20 км 3/3 1200 м
[Cu hum]
+36.6 +20.9 40 +43 +46 опасность
перегрева
1011.3 1002.1
21 11.12 С 6 20 км 1/1 1200 м
[Cu hum]
+36.0 +19.6 38 +41 +42 опасность
перегрева
1009.6 1000.4
00 12.12 СВ 4 20 км ясно +31.8 +21.7 55 +40 +40 очень
душно
1008.9 999.6 +36.6
03 12.12 СВ 2 20 км 4/0
[Ci]
+29.8 +21.2 60 +37 +37 очень
душно
1010.6 1001.2
06 12.12 СВ 3 20 км 4/0
[Ci]
+27.4 +20.7 67 +34 +34 очень
душно
1011.2 1001.7
09 12.12 СВ 1 20 км 6/0
[Ci]
+25.2 +20.3 74 +31 +31 очень
душно
1012.1 1002.5
12 12.12 СВ 6 20 км 8/0
[Ci]
+29.8 +21.2 60 +37 +40 очень
душно
1011.7 1002.3 +25.2
15 12.12 СВ 6 20 км 8/1 1200 м
[Cu hum Ci]
+34.0 +22.3 51 +43 +50 опасность
перегрева
1012.3 1003.0
18 12.12 С 4 20 км зарница 8/8 1000 м
[Cb cap]
+34.6 +20.5 44 +41 +44 опасность
перегрева
1011.0 1001.7
21 12.12 В 5 9000 м гроза, ливневой дождь 10/10 180 м
[Cb cap]
+22.2 +21.9 98 +29 +29 очень
душно
1014.3 1004.6 12
00 13.12 СВ 3 20 км {гроза, дождь} 9/5 800 м
[Sc Ac As]
+23.8 +19.3 76 +29 +29 душно 1008.9 999.4 +35.6 3
03 13.12 штиль 0 20 км 1/0
[Ac trans]
+21.6 +20.7 95 +27 +27 душно 1010.8 1001.1
06 13.12 штиль 0 20 км 4/0
[Ci fib]
+21.6 +20.7 95 +27 +27 душно 1011.1 1001.4
09 13.12 штиль 0 20 км 4/0
[Ci fib]
+21.8 +20.6 93 +28 +28 душно 1011.1 1001.4
12 13.12 СВ 5 20 км 8/0
[Cs]
+26.6 +21.4 73 +34 +37 очень
душно
1010.8 1001.3 +21.6 15
15 13.12 С 4 20 км 5/0
[Ci fib]
+32.6 +24.6 63 +46 +58 опасность
перегрева
1010.5 1000.1
18 13.12 СВ 6 20 км 6/3 1000 м
[Cu hum Ci fib]
+35.0 +23.7 52 +46 +50 опасность
перегрева
1007.7 998.4
21 13.12 С 6 20 км 3/3 1000 м
[Cu med, cong]
+35.4 +21.9 46 +44 +45 опасность
перегрева
1006.4 997.2
00 14.12 СВ 4 20 км 4/0
[Ci fib]
+29.8 +21.2 60 +37 +37 очень
душно
1005.6 996.2 +35.8
03 14.12 СВ 5 20 км 1/0
[Ci fib]
+28.5 +21.9 67 +37 +37 очень
душно
1006.4 997.0
06 14.12 СВ 4 20 км ясно +27.4 +22.2 73 +36 +36 очень
душно
1006.1 996.6
09 14.12 СВ 5 20 км 4/0
[Ci]
+26.0 +21.3 75 +33 +33 очень
душно
1005.9 996.4
12 14.12 С 6 20 км 5/0
[Ci fib]
+29.6 +22.7 66 +39 +42 очень
душно
1008.0 998.6 +25.2
15 14.12 С 7 20 км 5/5 1000 м
[Cu hum]
+33.6 +22.6 53 +43 +46 опасность
перегрева
1008.6 999.4
18 14.12 С 6 20 км 6/6 1000 м
[Cu Sc]
+35.4 +21.7 45 +43 +46 опасность
перегрева
1008.2 999.0
21 14.12 СВ 6 20 км 1/0
[Ci fib]
+35.6 +19.9 40 +41 +42 опасность
перегрева
1007.7 998.5
00 15.12 штиль 0 20 км ясно +30.4 +22.0 61 +39 +39 очень
душно
1009.5 1000.4 +35.8
03 15.12 СВ 2 20 км ясно +27.8 +23.2 76 +37 +37 очень
душно
1010.9 1001.5
06 15.12 СВ 4 20 км ясно +28.6 +22.0 68 +37 +37 очень
душно
1010.6 1001.2
09 15.12 СВ 1 20 км 3/1 1000 м
[Cu Sc Ac trans]
+26.2 +22.9 82 +35 +35 очень
душно
1011.8 1002.4
12 15.12 СЗ 3 20 км 8/8 600 м
[Cu Sc]
+29.2 +23.0 69 +39 +40 очень
душно
1016.0 1006.6 +26.2
15 15.12 Ю 8 20 км 9/9 600 м
[Cu Sc]
+25.4 +20.3 73 +31 +32 очень
душно
1017.2 1007.6 0.0
18 15.12 Ю 5 20 км 8/3 1000 м
[Cu Sc Ac und]
+27.4 +20.6 66 +34 +37 очень
душно
1014.1 1004.5
21 15.12 В 3 20 км 3/1 1000 м
[Cu Sc Ci ing]
+29.8 +21.3 60 +37 +40 очень
душно
1010.5 1001.1
00 16.12 штиль 0 20 км 3/0
[Ci fib]
+26.2 +22.9 82 +35 +35 очень
душно
1013.2 1003.7 +30.4
03 16.12 ЮВ 3 10 км дымка 8/0
[Cs]
+25.8 +23.0 85 +34 +34 очень
душно
1013.2 1003.7
06 16.12 В 2 20 км 5/0 2000 м
[Ac trans Cs]
+24.2 +22.3 89 +31 +31 очень
душно
1013.7 1004.1
09 16.12 штиль 0 20 км 5/0 2000 м
[Ac trans]
+23.4 +21.2 87 +31 +31 очень
душно
1014.0 1004.4
12 16.12 СВ 5 20 км 4/0
[Ac trans]
+29.2 +21.7 64 +37 +41 очень
душно
1014.9 1005.4 +23.4
15 16.12 С 4 20 км 3/3 1000 м
[Cu hum]
+32.8 +23.1 57 +43 +53 опасность
перегрева
1014.0 1004.7
18 16.12 С 5 20 км 4/4 1200 м
[Cu Sc]
+35.6 +21.4 44 +43 +48 опасность
перегрева
1012.2 1002.9
21 16.12 С 5 20 км 4/4 1200 м
[Cu Sc]
+35.4 +19.9 40 +41 +42 опасность
перегрева
1010.4 1001.1
00 17.12 СВ 4 20 км 1/0
[Ci fib]
+30.4 +22.5 63 +40 +40 очень
душно
1010.6 1001.2 +36.5
03 17.12 В 3 20 км 8/3 1000 м
[Cu Sc Ac As]
+28.4 +21.9 68 +37 +37 очень
душно
1012.0 1002.6
06 17.12 СВ 3 20 км 4/0
[Ci fib]
+26.6 +23.0 81 +36 +36 очень
душно
1011.2 1001.8
09 17.12 СВ 3 20 км 4/0
[Ac trans Ci]
+25.6 +23.1 86 +34 +34 очень
душно
1011.4 1001.9
12 17.12 С 5 20 км 4/0
[Ac trans Ci fib]
+30.0 +25.0 75 +43 +47 опасность
перегрева
1011.9 1002.5 +25.6
15 17.12 С 7 20 км 3/1 1200 м
[Cu hum Ci fib]
+34.6 +25.2 58 +48 +54 опасность
перегрева
1011.9 1002.6
18 17.12 С 6 20 км 1/1 1200 м
[Cu hum]
+36.2 +25.4 54 +50 +57 опасность
перегрева
1010.3 1001.1
21 17.12 С 5 20 км 1/1 1200 м
[Cu hum]
+36.6 +19.5 37 +42 +43 опасность
перегрева
1008.2 999.0
00 18.12 СВ 2 9000 м дым ясно +31.2 +22.2 59 +40 +40 очень
душно
1008.5 999.2 +36.8
03 18.12 СВ 3 20 км ясно +29.2 +22.9 69 +39 +39 очень
душно
1009.9 1000.5
06 18.12 СВ 2 20 км зарница {гроза} 3/1 1200 м
[Cb cap Ac trans]
+28.4 +22.1 69 +37 +37 очень
душно
1009.6 1000.1
09 18.12 С 3 20 км 5/1 1000 м
[Cu Sc Ac cast Ci]
+27.0 +22.8 78 +36 +36 очень
душно
1010.3 1000.8
12 18.12 СЗ 3 20 км 6/6 1000 м
[Cu Sc]
+30.2 +22.7 64 +40 +43 очень
душно
1012.6 1003.2 +27.0

 

Местоположение метеостанции Asuncion (Парагвай): широта -25.25 долгота -57.51 высота над уровнем моря 101 м.

В архиве по умолчанию представлена погода в Asuncion за последнюю неделю. Архивные данные за месяц целиком и за предыдущие месяцы, начиная с января 2011 года, Вы можете получить, выбрав интересующий диапазон дат из раскрывающегося списка и нажав кнопку "Ввод!".


*Определитесь, кто Вы:
робот инопланетянин человек

Внимание! Время в таблицах - всемирное. Для получения местного времени необходимо прибавить поправку, которая в Asuncion равна -4 ч.

Смотрите также архив погоды в соседних городах и на ближайших метеорологических станциях:

Погода в Paraguari (Парагвай) (57 км)
Погода в Coronel Oviedo (Парагвай) (118 км)
Погода в Quyquyhat (Парагвай) (120 км)
Погода в Villarrica (Парагвай) (122 км)
Погода в San Estanislao (Парагвай) (128 км)
Погода в Formosa (Аргентина) (128 км)
Погода в San Pedro (Парагвай) (139 км)
Погода в Gral. Bruguez (Парагвай) (144 км)
Погода в Caazapa (Парагвай) (156 км)
Погода в San Juan Bautista Misiones (Парагвай) (161 км)

Пояснения к столбцам:

Ветер - указаны скорость ветра в м/с - средняя за 10 мин, порывы в срок и между сроками (в фигурных скобках) и направление, откуда дует ветер: С - северный, СВ - северо-восточный, В - восточный, ЮВ - юго-восточный, Ю - южный, ЮЗ - юго-западный, З - западный, СЗ - северо-западный.
Видимость - горизонтальная дальность видимости в метрах или километрах. При видимости от 1 до 10 км при отсутствии осадков обычно наблюдается дымка, при ухудшении видимости до 1 км и менее - туман. В сухую погоду видимость может ухудшаться дымом, пылью или мглою.
Явления - указаны атмосферные явления, наблюдавшиеся в срок или в последний час перед сроком; фигурными скобками обозначены явления, наблюдавшиеся между сроками (за 1-3 часа до срока); квадратными скобками обозначены град или гололедные отложения с указанием их диаметра в мм.
Облачность - указаны через наклонную черту общая и нижняя облачность в баллах и высота нижней границы облаков в метрах; квадратными скобками обозначены формы облаков: Ci - перистые, Cs - перисто-слоистые, Cc - перисто-кучевые, Ac - высококучевые, As - высокослоистые, Sc - слоисто-кучевые, Ns - слоисто-дождевые, Cu - кучевые, Cb - кучево-дождевые. Подробнее классификацию облаков см. в Атласе облаков (PDF).
T - Температура воздуха - температура, измеренная на высоте 2 м над землей.
Td - Температура точки росы - температура, при понижении до которой содержащийся в воздухе водяной пар достигнет насыщения.
f - Относительная влажность воздуха - влажноcть воздуха, измеренная на высоте 2 м над землей.
Te - Эффективная температура - температура, которую ощущает одетый по сезону человек в тени. Характеристика душности погоды. При расчете учитывается влияние влажности воздуха и скорости ветра на теплоощущения человека.
Tes - Эффективная температура на солнце - температура, которую ощущает человек, с поправкой на солнечный нагрев. Характеристика знойности погоды. Зависит от высоты солнца над горизонтом, облачности и скорости ветра. Ночью, в пасмурную погоду, а также при ветре 12 м/с и более поправка равна нулю.
P - Атмосферное давление - приведенное к уровню моря атмосферное давление.
Po - Атмосферное давление - измеренное на уровне метеостанции атмосферное давление.
Tmin - Минимальная температура - минимум температуры воздуха на высоте 2 м над землей.
Tmax - Максимальная температура - максимум температуры воздуха на высоте 2 м над землей.
R - Количество осадков - Количество выпавших осадков за период времени, мм. При наведении курсора мыши на число - период времени, за который выпало указанное количество осадков.
R24 - Количество осадков - Количество выпавших осадков за 24 часа, мм.
S - Снежный покров - Высота снежного покрова, см. При наведении курсора мыши на число - состояние снежного покрова и степень покрытия местности в баллах.